Date,TemperatureHighF,TemperatureAvgF,TemperatureLowF,DewpointHighF,DewpointAvgF,DewpointLowF,HumidityHigh,HumidityAvg,HumidityLow,PressureMaxIn,PressureMinIn,WindSpeedMaxMPH,WindSpeedAvgMPH,GustSpeedMaxMPH,PrecipitationSumIn
2013-2-1,51.1,33.8,19.4,26.2,15.5,6.7,67,49,28,30.56,30.25,7,2,16,0.00
2013-2-2,59.6,43.9,30.3,33.3,27.9,22.9,76,56,31,30.41,30.26,4,1,10,0.00
2013-2-3,60.4,49.5,36.9,29.6,26.6,24.3,62,43,26,30.42,29.99,6,2,14,0.00
2013-2-4,67.9,57.0,44.6,42.2,30.6,25.4,51,38,22,30.03,29.88,5,2,13,0.00
2013-2-5,68.4,50.9,36.8,50.6,39.4,27.0,90,66,36,30.11,30.00,2,0,7,0.00
2013-2-6,57.8,51.5,44.6,55.5,49.1,41.8,92,92,89,30.10,29.92,7,2,16,0.01
2013-2-7,64.7,53.0,42.3,58.7,47.7,32.8,92,83,66,30.26,29.86,7,3,20,0.07
2013-2-8,56.6,43.3,32.1,32.9,28.5,21.0,80,59,26,30.41,30.23,3,1,8,0.00
2013-2-9,48.5,42.3,38.0,46.3,36.4,29.7,92,80,64,30.23,29.78,9,4,26,0.03
2013-2-10,63.5,50.5,40.2,49.4,32.3,23.8,92,54,27,30.14,29.75,6,1,16,0.06
2013-2-11,55.4,43.7,34.1,26.9,23.3,19.8,62,46,25,30.33,30.14,4,1,11,0.00
2013-2-12,43.3,36.2,32.8,32.4,29.9,24.4,91,79,48,30.19,30.06,3,1,11,0.67
2013-2-13,56.6,41.0,31.5,36.4,29.5,21.4,91,68,28,30.21,30.09,2,0,8,0.02
2013-2-14,64.0,47.7,34.3,34.8,29.5,23.2,71,52,24,30.29,30.09,5,1,14,0.00
2013-2-15,44.2,37.2,29.4,33.9,20.5,11.9,73,52,28,30.53,30.30,3,1,12,0.00
2013-2-16,53.5,39.8,27.0,28.4,23.9,15.0,87,57,27,30.52,30.18,4,1,14,0.00
2013-2-17,71.5,52.4,37.2,32.6,26.4,22.8,64,41,17,30.18,29.79,11,4,24,0.00
2013-2-18,57.6,51.6,38.6,47.2,32.7,-99.9,76,51,30,30.25,29.68,12,5,26,0.00
2013-2-19,55.3,42.8,30.6,25.2,21.5,17.8,70,45,24,30.45,30.26,4,1,10,0.00
2013-2-20,43.1,35.3,32.7,33.6,29.4,-99.9,90,83,44,30.28,29.99,8,4,17,0.60
2013-2-21,43.2,34.2,23.6,37.6,30.0,16.2,90,85,72,30.14,29.77,9,2,17,0.75
2013-2-22,39.8,28.6,20.3,22.0,17.2,12.9,75,63,44,30.31,30.12,2,1,7,0.03
2013-2-23,48.5,33.6,21.8,27.8,21.5,15.2,77,63,39,30.26,29.99,4,1,11,0.00
2013-2-24,64.3,47.8,32.4,37.6,31.4,23.8,71,55,35,30.00,29.77,11,4,21,0.00
2013-2-25,49.1,38.8,32.8,37.8,34.3,29.9,91,84,57,29.83,29.59,7,2,14,0.90
2013-2-26,48.3,38.0,31.6,31.5,28.7,24.7,89,71,45,30.05,29.75,6,3,16,0.08
2013-2-27,45.8,35.7,27.2,26.3,24.5,21.8,82,65,41,30.35,30.02,7,2,16,0.00
2013-2-28,48.8,36.8,27.8,28.4,24.7,21.9,81,63,40,30.39,30.32,6,2,14,0.00